| time (UTC) | temp C | wind direction | speed KPH | gust KPH | rain 1hr cm | rain 24hr cm | rain mn cm | humidity % | barometer mb |
| 20260906150531 | 21 | 153 | 12.9 | 16.1 | 0.03 | 0.03 | 0.03 | 84 | 1019.1 |
| 20260906145533 | 21 | 146 | 9.7 | 17.7 | 0.03 | 0.03 | 0.03 | 88 | 1019.1 |
| 20260906145031 | 21 | 170 | 11.3 | 17.7 | 0.03 | 0.03 | 0.03 | 88 | 1019.1 |
| 20260906144600 | 21 | 214 | 9.7 | 17.7 | 0.03 | 0.03 | 0.03 | 91 | 1019.2 |
| 20260906144031 | 20 | 143 | 8.0 | 12.9 | 0.03 | 0.03 | 0.03 | 92 | 1019.1 |
| 20260906143530 | 20 | 163 | 8.0 | 12.9 | 0.03 | 0.03 | 0.03 | 93 | 1019.1 |
| 20260906143109 | 20 | 149 | 6.4 | 11.3 | 0.00 | 0.00 | 0.00 | 93 | 1019.1 |
| 20260906142534 | 20 | 174 | 6.4 | 12.9 | 0.00 | 0.00 | 0.00 | 94 | 1019.1 |
| 20260906142030 | 19 | 144 | 6.4 | 12.9 | 0.00 | 0.00 | 0.00 | 94 | 1019.3 |
| 20260906141601 | 19 | 151 | 6.4 | 14.5 | 0.00 | 0.00 | 0.00 | 94 | 1019.3 |
| 20260906141031 | 19 | 100 | 8.0 | 14.5 | 0.00 | 0.00 | 0.00 | 94 | 1019.3 |
| 20260906140531 | 19 | 198 | 6.4 | 12.9 | 0.00 | 0.00 | 0.00 | 94 | 1019.2 |
| 20260906135531 | 18 | 144 | 4.8 | 14.5 | 0.00 | 0.00 | 0.00 | 94 | 1019.1 |
| 20260906135031 | 18 | 167 | 8.0 | 14.5 | 0.00 | 0.00 | 0.00 | 94 | 1019.1 |
| 20260906134604 | 18 | 167 | 6.4 | 11.3 | 0.00 | 0.00 | 0.00 | 94 | 1019.1 |
| 20260906134031 | 18 | 162 | 4.8 | 14.5 | 0.00 | 0.00 | 0.00 | 94 | 1019.1 |
| 20260906133530 | 18 | 132 | 8.0 | 14.5 | 0.00 | 0.00 | 0.00 | 94 | 1019.1 |
| 20260906133108 | 18 | 194 | 6.4 | 11.3 | 0.00 | 0.00 | 0.00 | 94 | 1019.2 |
| 20260906132531 | 18 | 141 | 4.8 | 11.3 | 0.00 | 0.00 | 0.00 | 94 | 1019.1 |
| 20260906132031 | 18 | 153 | 6.4 | 11.3 | 0.00 | 0.00 | 0.00 | 94 | 1019.2 |
| 20260906131600 | 18 | 163 | 4.8 | 8.0 | 0.00 | 0.00 | 0.00 | 94 | 1019.2 |
| 20260906131030 | 18 | 136 | 4.8 | 8.0 | 0.00 | 0.00 | 0.00 | 94 | 1019.2 |
| 20260906130531 | 18 | 153 | 4.8 | 6.4 | 0.00 | 0.00 | 0.00 | 94 | 1019.2 |
| 20260906130056 | 18 | 221 | 1.6 | 6.4 | 0.00 | 0.00 | 0.00 | 94 | 1019.2 |
| 20260906125531 | 18 | 172 | 3.2 | 6.4 | 0.00 | 0.00 | 0.00 | 94 | 1019.2 |
| 20260906125031 | 17 | 102 | 1.6 | 9.7 | 0.00 | 0.00 | 0.00 | 94 | 1019.0 |
| 20260906124600 | 17 | 141 | 3.2 | 9.7 | 0.00 | 0.00 | 0.00 | 94 | 1019.0 |
| 20260906124030 | 17 | 172 | 3.2 | 9.7 | 0.00 | 0.00 | 0.00 | 94 | 1018.7 |
| 20260906123531 | 17 | 150 | 3.2 | 9.7 | 0.00 | 0.00 | 0.00 | 94 | 1018.7 |
| 20260906123104 | 17 | 153 | 4.8 | 9.7 | 0.00 | 0.00 | 0.00 | 94 | 1018.6 |
| 20260906122534 | 17 | 153 | 3.2 | 6.4 | 0.00 | 0.00 | 0.00 | 94 | 1018.5 |
| 20260906122031 | 17 | 165 | 1.6 | 6.4 | 0.00 | 0.00 | 0.00 | 94 | 1018.6 |
| 20260906121554 | 17 | 101 | 1.6 | 6.4 | 0.00 | 0.00 | 0.00 | 94 | 1018.5 |
| 20260906121031 | 17 | 144 | 3.2 | 6.4 | 0.00 | 0.00 | 0.00 | 94 | 1018.5 |
| 20260906120531 | 17 | 165 | 1.6 | 8.0 | 0.00 | 0.00 | 0.00 | 94 | 1018.6 |
| 20260906120137 | 17 | 153 | 3.2 | 8.0 | 0.00 | 0.00 | 0.00 | 94 | 1018.5 |
| 20260906115531 | 17 | 160 | 1.6 | 4.8 | 0.00 | 0.00 | 0.00 | 94 | 1018.5 |
| 20260906115031 | 17 | 153 | 1.6 | 4.8 | 0.00 | 0.00 | 0.00 | 94 | 1018.6 |
| 20260906114627 | 17 | 152 | 1.6 | 4.8 | 0.00 | 0.00 | 0.00 | 94 | 1018.6 |
| 20260906114030 | 17 | 151 | 0.0 | 6.4 | 0.00 | 0.00 | 0.00 | 94 | 1018.4 |
| 20260906113530 | 17 | 179 | 1.6 | 6.4 | 0.00 | 0.00 | 0.00 | 94 | 1018.2 |
| 20260906113100 | 17 | 146 | 1.6 | 6.4 | 0.00 | 0.00 | 0.00 | 94 | 1018.1 |
| 20260906112530 | 17 | 146 | 1.6 | 6.4 | 0.00 | 0.00 | 0.00 | 94 | 1017.9 |
| 20260906112031 | 17 | 123 | 3.2 | 4.8 | 0.00 | 0.00 | 0.00 | 94 | 1018.0 |
| 20260906111603 | 17 | 0 | 0.0 | 8.0 | 0.00 | 0.00 | 0.00 | 94 | 1018.0 |
| 20260906111031 | 17 | 235 | 3.2 | 8.0 | 0.00 | 0.00 | 0.00 | 94 | 1017.9 |
| 20260906110531 | 17 | 158 | 1.6 | 6.4 | 0.00 | 0.00 | 0.00 | 94 | 1017.8 |
| 20260906110057 | 17 | 187 | 1.6 | 6.4 | 0.00 | 0.00 | 0.00 | 94 | 1017.9 |
| 20260906105530 | 17 | 175 | 0.0 | 6.4 | 0.00 | 0.00 | 0.00 | 94 | 1018.0 |
| 20260906105033 | 17 | 154 | 1.6 | 6.4 | 0.00 | 0.00 | 0.00 | 94 | 1018.0 |
| 20260906104557 | 16 | 169 | 0.0 | 3.2 | 0.00 | 0.00 | 0.00 | 94 | 1018.1 |
| 20260906104030 | 16 | 0 | 0.0 | 3.2 | 0.00 | 0.00 | 0.00 | 94 | 1018.1 |
| 20260906103531 | 16 | 0 | 1.6 | 3.2 | 0.00 | 0.00 | 0.00 | 94 | 1018.2 |
| 20260906103103 | 16 | 152 | 0.0 | 1.6 | 0.00 | 0.00 | 0.00 | 94 | 1018.1 |
| 20260906102535 | 16 | 0 | 0.0 | 0.0 | 0.00 | 0.00 | 0.00 | 94 | 1018.1 |
| 20260906102031 | 16 | 0 | 0.0 | 0.0 | 0.00 | 0.00 | 0.00 | 94 | 1018.0 |
| 20260906101557 | 16 | 0 | 0.0 | 0.0 | 0.00 | 0.00 | 0.00 | 94 | 1017.8 |
| 20260906101034 | 17 | 0 | 0.0 | 0.0 | 0.00 | 0.00 | 0.00 | 94 | 1017.8 |
| 20260906100533 | 17 | 0 | 0.0 | 0.0 | 0.00 | 0.00 | 0.00 | 94 | 1017.8 |
| 20260906095530 | 17 | 0 | 0.0 | 1.6 | 0.00 | 0.00 | 0.00 | 94 | 1017.6 |
| 20260906095031 | 17 | 0 | 0.0 | 1.6 | 0.00 | 0.00 | 0.00 | 94 | 1017.5 |
| 20260906094557 | 17 | 229 | 0.0 | 1.6 | 0.00 | 0.00 | 0.00 | 94 | 1017.5 |
| 20260906094031 | 17 | 0 | 0.0 | 0.0 | 0.00 | 0.00 | 0.00 | 94 | 1017.4 |
| 20260906093534 | 17 | 0 | 0.0 | 1.6 | 0.00 | 0.00 | 0.00 | 94 | 1017.5 |
| 20260906093100 | 17 | 0 | 0.0 | 1.6 | 0.00 | 0.00 | 0.00 | 94 | 1017.4 |
| 20260906092531 | 17 | 0 | 0.0 | 6.4 | 0.00 | 0.00 | 0.00 | 94 | 1017.4 |
| 20260906092031 | 17 | 0 | 0.0 | 6.4 | 0.00 | 0.00 | 0.00 | 94 | 1017.3 |
| 20260906091601 | 17 | 134 | 1.6 | 8.0 | 0.00 | 0.00 | 0.00 | 94 | 1017.3 |
| 20260906091031 | 17 | 158 | 1.6 | 8.0 | 0.00 | 0.00 | 0.00 | 94 | 1017.2 |
| 20260906090532 | 17 | 195 | 3.2 | 8.0 | 0.00 | 0.00 | 0.00 | 94 | 1017.1 |
| 20260906090058 | 17 | 0 | 0.0 | 3.2 | 0.00 | 0.00 | 0.00 | 94 | 1017.3 |
| 20260906085531 | 17 | 144 | 0.0 | 3.2 | 0.00 | 0.00 | 0.00 | 94 | 1017.2 |
| 20260906085030 | 17 | 138 | 0.0 | 3.2 | 0.00 | 0.00 | 0.00 | 94 | 1017.2 |
| 20260906084557 | 17 | 134 | 0.0 | 3.2 | 0.00 | 0.00 | 0.00 | 94 | 1017.1 |
| 20260906084030 | 17 | 168 | 0.0 | 3.2 | 0.00 | 0.00 | 0.00 | 94 | 1017.2 |
| 20260906083531 | 17 | 104 | 0.0 | 1.6 | 0.00 | 0.00 | 0.00 | 94 | 1017.3 |
| 20260906083100 | 17 | 0 | 0.0 | 1.6 | 0.00 | 0.00 | 0.00 | 94 | 1017.3 |
| 20260906082530 | 18 | 0 | 0.0 | 1.6 | 0.00 | 0.00 | 0.00 | 94 | 1017.4 |
| 20260906082031 | 18 | 0 | 0.0 | 1.6 | 0.00 | 0.00 | 0.00 | 94 | 1017.4 |
| 20260906081559 | 18 | 0 | 0.0 | 1.6 | 0.00 | 0.00 | 0.00 | 94 | 1017.4 |
| 20260906081030 | 18 | 0 | 0.0 | 1.6 | 0.00 | 0.00 | 0.00 | 94 | 1017.4 |
| 20260906080531 | 18 | 0 | 0.0 | 1.6 | 0.00 | 0.00 | 0.00 | 94 | 1017.5 |
| 20260906080059 | 18 | 0 | 0.0 | 1.6 | 0.00 | 0.00 | 0.00 | 94 | 1017.5 |
| 20260906075530 | 18 | 0 | 0.0 | 1.6 | 0.00 | 0.00 | 0.00 | 94 | 1017.4 |
| 20260906075030 | 18 | 0 | 0.0 | 1.6 | 0.00 | 0.00 | 0.00 | 94 | 1017.4 |
| 20260906074557 | 18 | 127 | 0.0 | 4.8 | 0.00 | 0.00 | 0.00 | 94 | 1017.4 |
| 20260906074031 | 18 | 0 | 0.0 | 4.8 | 0.00 | 0.00 | 0.00 | 94 | 1017.4 |
| 20260906073530 | 18 | 121 | 1.6 | 4.8 | 0.00 | 0.00 | 0.00 | 94 | 1017.3 |
| 20260906073052 | 18 | 160 | 1.6 | 3.2 | 0.00 | 0.00 | 0.00 | 94 | 1017.5 |
| 20260906072531 | 18 | 0 | 0.0 | 3.2 | 0.00 | 0.00 | 0.00 | 94 | 1017.5 |
| 20260906072031 | 18 | 96 | 0.0 | 6.4 | 0.00 | 0.00 | 0.00 | 94 | 1017.5 |
| 20260906071600 | 18 | 98 | 1.6 | 6.4 | 0.00 | 0.00 | 0.00 | 94 | 1017.5 |
| 20260906071031 | 18 | 102 | 1.6 | 4.8 | 0.00 | 0.00 | 0.00 | 94 | 1017.6 |
| 20260906070531 | 18 | 95 | 1.6 | 4.8 | 0.00 | 0.00 | 0.00 | 94 | 1017.6 |
| 20260906070056 | 18 | 117 | 1.6 | 3.2 | 0.00 | 0.00 | 0.00 | 94 | 1017.6 |
| 20260906065530 | 18 | 127 | 0.0 | 1.6 | 0.00 | 0.00 | 0.00 | 94 | 1017.6 |
| 20260906065031 | 18 | 0 | 0.0 | 0.0 | 0.00 | 0.00 | 0.00 | 94 | 1017.8 |
| 20260906064600 | 18 | 0 | 0.0 | 0.0 | 0.00 | 0.00 | 0.00 | 94 | 1017.8 |
| 20260906064031 | 18 | 0 | 0.0 | 0.0 | 0.00 | 0.00 | 0.00 | 94 | 1018.0 |
| 20260906063530 | 18 | 0 | 0.0 | 0.0 | 0.00 | 0.00 | 0.00 | 94 | 1018.0 |
| 20260906063058 | 18 | 0 | 0.0 | 0.0 | 0.00 | 0.00 | 0.00 | 94 | 1018.0 |
| 20260906062530 | 18 | 0 | 0.0 | 0.0 | 0.00 | 0.00 | 0.00 | 94 | 1018.1 |
| 20260906062030 | 18 | 0 | 0.0 | 1.6 | 0.00 | 0.00 | 0.00 | 93 | 1018.1 |
| 20260906061559 | 18 | 0 | 0.0 | 1.6 | 0.00 | 0.00 | 0.00 | 94 | 1018.1 |
| 20260906061030 | 18 | 0 | 0.0 | 1.6 | 0.00 | 0.00 | 0.00 | 94 | 1018.0 |
| 20260906060528 | 18 | 0 | 0.0 | 1.6 | 0.00 | 0.00 | 0.00 | 94 | 1017.9 |
| 20260906060058 | 18 | 0 | 0.0 | 1.6 | 0.00 | 0.00 | 0.00 | 94 | 1017.9 |
| 20260906055531 | 18 | 148 | 0.0 | 1.6 | 0.00 | 0.00 | 0.00 | 94 | 1017.9 |
| 20260906055031 | 18 | 0 | 0.0 | 1.6 | 0.00 | 0.00 | 0.00 | 94 | 1017.8 |
| 20260906054631 | 18 | 148 | 0.0 | 1.6 | 0.00 | 0.00 | 0.00 | 94 | 1017.9 |
| 20260906054031 | 18 | 148 | 0.0 | 1.6 | 0.00 | 0.00 | 0.00 | 94 | 1017.8 |
| 20260906053530 | 18 | 148 | 0.0 | 0.0 | 0.00 | 0.00 | 0.00 | 94 | 1017.7 |
| 20260906053054 | 18 | 0 | 0.0 | 0.0 | 0.00 | 0.00 | 0.00 | 94 | 1017.8 |
| 20260906052530 | 18 | 0 | 0.0 | 0.0 | 0.00 | 0.00 | 0.00 | 94 | 1017.8 |
| 20260906052031 | 18 | 0 | 0.0 | 0.0 | 0.00 | 0.00 | 0.00 | 94 | 1017.8 |
| 20260906051551 | 18 | 0 | 0.0 | 0.0 | 0.00 | 0.00 | 0.00 | 93 | 1017.8 |
| 20260906051030 | 18 | 0 | 0.0 | 0.0 | 0.00 | 0.00 | 0.00 | 93 | 1017.8 |
| 20260906050530 | 18 | 0 | 0.0 | 0.0 | 0.00 | 0.00 | 0.00 | 93 | 1018.0 |
| 20260906050107 | 18 | 0 | 0.0 | 0.0 | 0.00 | 0.00 | 0.00 | 93 | 1017.9 |
| 20260906045530 | 18 | 0 | 0.0 | 0.0 | 0.00 | 0.00 | 0.00 | 94 | 1017.9 |
| 20260906045031 | 18 | 0 | 0.0 | 0.0 | 0.00 | 0.00 | 0.00 | 93 | 1017.9 |
| 20260906044601 | 18 | 0 | 0.0 | 0.0 | 0.00 | 0.00 | 0.00 | 93 | 1017.7 |
| 20260906044032 | 18 | 0 | 0.0 | 0.0 | 0.00 | 0.00 | 0.00 | 93 | 1017.8 |
| 20260906043531 | 18 | 0 | 0.0 | 0.0 | 0.00 | 0.00 | 0.00 | 93 | 1017.9 |
| 20260906043052 | 18 | 0 | 0.0 | 0.0 | 0.00 | 0.00 | 0.00 | 93 | 1017.8 |
| 20260906042531 | 18 | 0 | 0.0 | 0.0 | 0.00 | 0.00 | 0.00 | 92 | 1017.8 |
| 20260906042030 | 18 | 0 | 0.0 | 0.0 | 0.00 | 0.00 | 0.00 | 92 | 1017.7 |
| 20260906041603 | 18 | 0 | 0.0 | 0.0 | 0.00 | 0.00 | 0.00 | 93 | 1017.6 |
| 20260906041029 | 18 | 0 | 0.0 | 0.0 | 0.00 | 0.00 | 0.00 | 93 | 1017.7 |
| 20260906040529 | 18 | 0 | 0.0 | 0.0 | 0.00 | 0.00 | 0.00 | 93 | 1017.6 |
| 20260906040111 | 18 | 0 | 0.0 | 0.0 | 0.00 | 0.00 | 0.00 | 92 | 1017.6 |
| 20260906035528 | 18 | 0 | 0.0 | 0.0 | 0.00 | 0.00 | 0.00 | 92 | 1017.4 |
| 20260906035028 | 19 | 0 | 0.0 | 0.0 | 0.00 | 0.00 | 0.00 | 92 | 1017.5 |
| 20260906034556 | 19 | 0 | 0.0 | 0.0 | 0.00 | 0.00 | 0.00 | 92 | 1017.6 |
| 20260906034032 | 19 | 0 | 0.0 | 0.0 | 0.00 | 0.00 | 0.00 | 92 | 1017.6 |
| 20260906033530 | 19 | 0 | 0.0 | 0.0 | 0.00 | 0.00 | 0.00 | 92 | 1017.7 |
| 20260906033127 | 19 | 0 | 0.0 | 0.0 | 0.00 | 0.00 | 0.00 | 92 | 1017.9 |
| 20260906032529 | 19 | 0 | 0.0 | 0.0 | 0.00 | 0.00 | 0.00 | 92 | 1017.8 |
| 20260906032034 | 19 | 0 | 0.0 | 0.0 | 0.00 | 0.00 | 0.00 | 92 | 1017.8 |
| 20260906031613 | 19 | 0 | 0.0 | 0.0 | 0.00 | 0.00 | 0.00 | 92 | 1017.9 |
| 20260906031032 | 19 | 0 | 0.0 | 0.0 | 0.00 | 0.00 | 0.00 | 92 | 1017.9 |
| 20260906030531 | 19 | 0 | 0.0 | 0.0 | 0.00 | 0.00 | 0.00 | 92 | 1017.8 |
| 20260906030059 | 19 | 0 | 0.0 | 0.0 | 0.00 | 0.00 | 0.00 | 92 | 1017.8 |
| 20260906025531 | 19 | 0 | 0.0 | 0.0 | 0.00 | 0.00 | 0.00 | 91 | 1017.6 |
| 20260906025032 | 19 | 0 | 0.0 | 0.0 | 0.00 | 0.00 | 0.00 | 91 | 1017.6 |
| 20260906024604 | 19 | 0 | 0.0 | 0.0 | 0.00 | 0.00 | 0.00 | 91 | 1017.6 |
| 20260906024031 | 19 | 0 | 0.0 | 0.0 | 0.00 | 0.00 | 0.00 | 90 | 1017.6 |
| 20260906023531 | 19 | 0 | 0.0 | 0.0 | 0.00 | 0.00 | 0.00 | 90 | 1017.4 |
| 20260906023103 | 20 | 0 | 0.0 | 0.0 | 0.00 | 0.00 | 0.00 | 89 | 1017.2 |
| 20260906022530 | 20 | 0 | 0.0 | 0.0 | 0.00 | 0.00 | 0.00 | 89 | 1017.1 |
| 20260906022030 | 20 | 0 | 0.0 | 0.0 | 0.00 | 0.00 | 0.00 | 89 | 1017.0 |
| 20260906021603 | 20 | 0 | 0.0 | 0.0 | 0.00 | 0.00 | 0.00 | 88 | 1016.9 |
| 20260906021030 | 20 | 0 | 0.0 | 0.0 | 0.00 | 0.00 | 0.00 | 88 | 1016.7 |
| 20260906020534 | 20 | 0 | 0.0 | 0.0 | 0.00 | 0.00 | 0.00 | 88 | 1016.6 |
| 20260906020053 | 20 | 0 | 0.0 | 0.0 | 0.00 | 0.00 | 0.00 | 87 | 1016.5 |
| 20260906015530 | 21 | 0 | 0.0 | 0.0 | 0.00 | 0.00 | 0.00 | 87 | 1016.3 |
| 20260906015030 | 21 | 0 | 0.0 | 0.0 | 0.00 | 0.00 | 0.00 | 87 | 1016.1 |
| 20260906014559 | 21 | 0 | 0.0 | 1.6 | 0.00 | 0.00 | 0.00 | 88 | 1015.9 |
| 20260906014031 | 21 | 0 | 0.0 | 1.6 | 0.00 | 0.00 | 0.00 | 87 | 1015.9 |
| 20260906013530 | 21 | 0 | 0.0 | 4.8 | 0.00 | 0.00 | 0.00 | 86 | 1015.8 |
| 20260906013104 | 21 | 171 | 1.6 | 6.4 | 0.00 | 0.00 | 0.00 | 86 | 1015.7 |
| 20260906012530 | 21 | 165 | 3.2 | 6.4 | 0.00 | 0.00 | 0.00 | 85 | 1015.6 |
| 20260906012029 | 21 | 164 | 1.6 | 6.4 | 0.00 | 0.00 | 0.00 | 85 | 1015.6 |
| 20260906011604 | 21 | 131 | 0.0 | 4.8 | 0.00 | 0.00 | 0.00 | 84 | 1015.5 |
| 20260906011032 | 22 | 166 | 0.0 | 6.4 | 0.00 | 0.00 | 0.00 | 84 | 1015.4 |
| 20260906010532 | 22 | 150 | 3.2 | 8.0 | 0.00 | 0.00 | 0.00 | 84 | 1015.4 |
| 20260906010057 | 22 | 107 | 3.2 | 8.0 | 0.00 | 0.00 | 0.00 | 84 | 1015.4 |
| 20260906005530 | 22 | 110 | 3.2 | 6.4 | 0.00 | 0.00 | 0.00 | 84 | 1015.3 |
| 20260906005030 | 22 | 139 | 3.2 | 6.4 | 0.00 | 0.00 | 0.00 | 84 | 1015.2 |
| 20260906004603 | 22 | 0 | 0.0 | 8.0 | 0.00 | 0.00 | 0.00 | 83 | 1015.2 |
| 20260906004032 | 22 | 159 | 1.6 | 8.0 | 0.00 | 0.00 | 0.00 | 83 | 1015.2 |
| 20260906003530 | 22 | 186 | 0.0 | 3.2 | 0.00 | 0.00 | 0.00 | 82 | 1015.3 |
| 20260906003100 | 22 | 234 | 0.0 | 3.2 | 0.00 | 0.00 | 0.00 | 82 | 1015.1 |
| 20260906002529 | 23 | 0 | 0.0 | 3.2 | 0.00 | 0.00 | 0.00 | 81 | 1015.0 |
| 20260906002031 | 23 | 84 | 0.0 | 4.8 | 0.00 | 0.00 | 0.00 | 81 | 1015.0 |
| 20260906001600 | 23 | 317 | 0.0 | 4.8 | 0.00 | 0.00 | 0.00 | 80 | 1015.0 |
| 20260906001030 | 23 | 85 | 0.0 | 3.2 | 0.00 | 0.00 | 0.00 | 80 | 1015.1 |
| 20260906000532 | 23 | 355 | 0.0 | 3.2 | 0.00 | 0.00 | 0.00 | 79 | 1015.3 |
| 20260905235530 | 23 | 239 | 0.0 | 3.2 | 0.00 | 0.00 | 0.00 | 78 | 1015.2 |
| 20260905235031 | 24 | 58 | 1.6 | 4.8 | 0.00 | 0.00 | 0.00 | 77 | 1015.2 |
| 20260905234556 | 24 | 72 | 0.0 | 4.8 | 0.00 | 0.00 | 0.00 | 77 | 1015.2 |
| 20260905234030 | 24 | 72 | 1.6 | 3.2 | 0.00 | 0.00 | 0.00 | 77 | 1015.1 |
| 20260905233530 | 24 | 95 | 1.6 | 3.2 | 0.00 | 0.00 | 0.00 | 77 | 1015.3 |
| 20260905233058 | 24 | 70 | 0.0 | 6.4 | 0.00 | 0.00 | 0.00 | 76 | 1015.3 |
| 20260905232529 | 24 | 56 | 1.6 | 6.4 | 0.00 | 0.00 | 0.00 | 75 | 1015.3 |
| 20260905232030 | 24 | 0 | 1.6 | 4.8 | 0.00 | 0.00 | 0.00 | 75 | 1015.4 |
| 20260905231600 | 25 | 247 | 0.0 | 4.8 | 0.00 | 0.00 | 0.00 | 75 | 1015.5 |
| 20260905231029 | 25 | 244 | 1.6 | 4.8 | 0.00 | 0.00 | 0.00 | 74 | 1015.5 |
| 20260905230531 | 25 | 240 | 1.6 | 4.8 | 0.00 | 0.00 | 0.00 | 75 | 1015.4 |
| 20260905230058 | 25 | 77 | 1.6 | 3.2 | 0.00 | 0.00 | 0.00 | 74 | 1015.3 |
| 20260905225532 | 25 | 353 | 1.6 | 4.8 | 0.00 | 0.00 | 0.00 | 73 | 1015.4 |
| 20260905225030 | 25 | 72 | 0.0 | 6.4 | 0.00 | 0.00 | 0.00 | 73 | 1015.4 |
| 20260905224559 | 25 | 127 | 1.6 | 6.4 | 0.00 | 0.00 | 0.00 | 72 | 1015.4 |
| 20260905224029 | 25 | 58 | 1.6 | 6.4 | 0.00 | 0.00 | 0.00 | 72 | 1015.4 |
| 20260905223529 | 25 | 148 | 1.6 | 8.0 | 0.00 | 0.00 | 0.00 | 70 | 1015.5 |
| 20260905223101 | 25 | 64 | 1.6 | 8.0 | 0.00 | 0.00 | 0.00 | 70 | 1015.5 |
| 20260905222531 | 25 | 300 | 1.6 | 6.4 | 0.00 | 0.00 | 0.00 | 71 | 1015.5 |
| 20260905222030 | 26 | 80 | 1.6 | 6.4 | 0.00 | 0.00 | 0.00 | 70 | 1015.6 |
| 20260905221558 | 26 | 285 | 1.6 | 4.8 | 0.00 | 0.00 | 0.00 | 70 | 1015.7 |
| 20260905221030 | 26 | 61 | 3.2 | 6.4 | 0.00 | 0.00 | 0.00 | 69 | 1015.8 |
| 20260905220530 | 26 | 25 | 1.6 | 12.9 | 0.00 | 0.00 | 0.00 | 67 | 1015.9 |
| 20260905220052 | 26 | 65 | 1.6 | 12.9 | 0.00 | 0.00 | 0.00 | 66 | 1015.8 |
| 20260905215529 | 27 | 250 | 4.8 | 9.7 | 0.00 | 0.00 | 0.00 | 66 | 1015.8 |
| 20260905215031 | 27 | 88 | 1.6 | 6.4 | 0.00 | 0.00 | 0.00 | 66 | 1015.9 |
| 20260905214600 | 27 | 176 | 1.6 | 9.7 | 0.00 | 0.00 | 0.00 | 65 | 1015.9 |
| 20260905214030 | 27 | 35 | 3.2 | 9.7 | 0.00 | 0.00 | 0.00 | 66 | 1015.9 |
| 20260905213530 | 27 | 84 | 1.6 | 6.4 | 0.00 | 0.00 | 0.00 | 66 | 1016.0 |
| 20260905213100 | 27 | 78 | 1.6 | 8.0 | 0.00 | 0.00 | 0.00 | 66 | 1016.1 |
| 20260905212530 | 27 | 72 | 1.6 | 8.0 | 0.00 | 0.00 | 0.00 | 67 | 1016.0 |
| 20260905212029 | 27 | 213 | 3.2 | 8.0 | 0.00 | 0.00 | 0.00 | 69 | 1016.1 |
| 20260905211611 | 26 | 96 | 1.6 | 4.8 | 0.00 | 0.00 | 0.00 | 69 | 1016.2 |
| 20260905211030 | 26 | 72 | 3.2 | 6.4 | 0.00 | 0.00 | 0.00 | 67 | 1016.1 |
| 20260905210530 | 27 | 76 | 1.6 | 6.4 | 0.00 | 0.00 | 0.00 | 69 | 1016.2 |
| 20260905210104 | 27 | 66 | 1.6 | 6.4 | 0.00 | 0.00 | 0.00 | 68 | 1016.2 |
| 20260905205531 | 27 | 134 | 1.6 | 4.8 | 0.00 | 0.00 | 0.00 | 69 | 1016.4 |
| 20260905205031 | 27 | 351 | 1.6 | 4.8 | 0.00 | 0.00 | 0.00 | 68 | 1016.4 |
| 20260905204603 | 26 | 12 | 1.6 | 6.4 | 0.00 | 0.00 | 0.00 | 68 | 1016.5 |
| 20260905204032 | 26 | 354 | 3.2 | 6.4 | 0.00 | 0.00 | 0.00 | 68 | 1016.4 |
| 20260905203529 | 26 | 70 | 1.6 | 4.8 | 0.00 | 0.00 | 0.00 | 67 | 1016.5 |
| 20260905203049 | 26 | 66 | 1.6 | 9.7 | 0.00 | 0.00 | 0.00 | 68 | 1016.5 |
| 20260905202533 | 26 | 70 | 1.6 | 9.7 | 0.00 | 0.00 | 0.00 | 69 | 1016.6 |
| 20260905202038 | 26 | 144 | 3.2 | 9.7 | 0.00 | 0.00 | 0.00 | 68 | 1016.6 |
| 20260905201606 | 27 | 133 | 3.2 | 8.0 | 0.00 | 0.00 | 0.00 | 67 | 1016.6 |
| 20260905201031 | 27 | 98 | 1.6 | 9.7 | 0.00 | 0.00 | 0.00 | 67 | 1016.6 |
| 20260905200531 | 27 | 334 | 1.6 | 9.7 | 0.00 | 0.00 | 0.00 | 68 | 1016.7 |
| 20260905200118 | 27 | 166 | 1.6 | 8.0 | 0.00 | 0.00 | 0.00 | 68 | 1016.8 |
| 20260905195530 | 27 | 0 | 1.6 | 4.8 | 0.00 | 0.00 | 0.00 | 69 | 1016.9 |
| 20260905195031 | 26 | 328 | 0.0 | 4.8 | 0.00 | 0.00 | 0.00 | 69 | 1016.9 |
| 20260905194553 | 26 | 0 | 1.6 | 9.7 | 0.00 | 0.00 | 0.00 | 70 | 1016.9 |
| 20260905194031 | 26 | 149 | 3.2 | 12.9 | 0.00 | 0.00 | 0.00 | 70 | 1016.8 |
| 20260905193530 | 26 | 146 | 4.8 | 12.9 | 0.00 | 0.00 | 0.00 | 72 | 1016.8 |
| 20260905193100 | 26 | 192 | 4.8 | 11.3 | 0.00 | 0.00 | 0.00 | 74 | 1016.9 |
| 20260905192531 | 25 | 181 | 4.8 | 9.7 | 0.00 | 0.00 | 0.00 | 75 | 1016.9 |
| 20260905192030 | 25 | 125 | 1.6 | 8.0 | 0.00 | 0.00 | 0.00 | 74 | 1016.9 |
| 20260905191556 | 25 | 167 | 0.0 | 8.0 | 0.00 | 0.00 | 0.00 | 75 | 1016.8 |
| 20260905191030 | 25 | 20 | 1.6 | 9.7 | 0.00 | 0.00 | 0.00 | 76 | 1016.8 |
| 20260905190530 | 25 | 163 | 4.8 | 9.7 | 0.00 | 0.00 | 0.00 | 77 | 1017.0 |
| 20260905190057 | 24 | 155 | 1.6 | 8.0 | 0.00 | 0.00 | 0.00 | 78 | 1017.0 |
| 20260905185531 | 24 | 165 | 3.2 | 8.0 | 0.00 | 0.00 | 0.00 | 77 | 1017.0 |
| 20260905185035 | 24 | 108 | 1.6 | 4.8 | 0.00 | 0.00 | 0.00 | 77 | 1017.0 |
| 20260905184556 | 24 | 151 | 0.0 | 3.2 | 0.00 | 0.00 | 0.00 | 76 | 1016.9 |
| 20260905184031 | 24 | 89 | 1.6 | 9.7 | 0.00 | 0.00 | 0.00 | 77 | 1017.0 |
| 20260905183531 | 24 | 128 | 1.6 | 9.7 | 0.00 | 0.00 | 0.00 | 78 | 1016.9 |
| 20260905183059 | 24 | 151 | 1.6 | 8.0 | 0.00 | 0.00 | 0.00 | 80 | 1016.9 |
| 20260905182531 | 23 | 88 | 1.6 | 9.7 | 0.00 | 0.00 | 0.00 | 81 | 1016.8 |
| 20260905182031 | 23 | 143 | 6.4 | 9.7 | 0.00 | 0.00 | 0.00 | 80 | 1016.8 |
| 20260905181600 | 23 | 158 | 4.8 | 8.0 | 0.00 | 0.00 | 0.00 | 80 | 1016.9 |
| 20260905181030 | 23 | 157 | 3.2 | 8.0 | 0.00 | 0.00 | 0.00 | 80 | 1017.0 |
| 20260905180534 | 24 | 123 | 3.2 | 8.0 | 0.00 | 0.00 | 0.00 | 80 | 1017.1 |
| 20260905180104 | 24 | 160 | 4.8 | 8.0 | 0.00 | 0.00 | 0.00 | 81 | 1017.2 |
| 20260905175531 | 24 | 207 | 4.8 | 11.3 | 0.00 | 0.00 | 0.00 | 82 | 1017.3 |
| 20260905175031 | 24 | 153 | 6.4 | 11.3 | 0.00 | 0.00 | 0.00 | 81 | 1017.4 |
| 20260905174555 | 24 | 172 | 6.4 | 11.3 | 0.00 | 0.00 | 0.00 | 83 | 1017.5 |
| 20260905174031 | 23 | 174 | 4.8 | 11.3 | 0.00 | 0.00 | 0.00 | 82 | 1017.5 |
| 20260905173537 | 23 | 148 | 3.2 | 11.3 | 0.00 | 0.00 | 0.00 | 81 | 1017.5 |
| 20260905173106 | 23 | 171 | 3.2 | 11.3 | 0.00 | 0.00 | 0.00 | 83 | 1017.6 |
| 20260905172531 | 23 | 0 | 0.0 | 4.8 | 0.00 | 0.00 | 0.00 | 83 | 1017.6 |
| 20260905172031 | 23 | 156 | 0.0 | 6.4 | 0.00 | 0.00 | 0.00 | 85 | 1017.5 |
| 20260905171557 | 23 | 165 | 3.2 | 8.0 | 0.00 | 0.00 | 0.00 | 83 | 1017.5 |
| 20260905171033 | 23 | 138 | 3.2 | 8.0 | 0.00 | 0.00 | 0.00 | 85 | 1017.6 |
| 20260905170531 | 23 | 165 | 3.2 | 8.0 | 0.00 | 0.00 | 0.00 | 84 | 1017.7 |
| 20260905165531 | 23 | 153 | 3.2 | 12.9 | 0.00 | 0.00 | 0.00 | 86 | 1017.4 |
| 20260905165032 | 23 | 169 | 4.8 | 12.9 | 0.00 | 0.00 | 0.00 | 87 | 1017.3 |
| 20260905164552 | 22 | 227 | 4.8 | 8.0 | 0.00 | 0.00 | 0.00 | 87 | 1017.3 |
| 20260905164033 | 22 | 172 | 3.2 | 8.0 | 0.00 | 0.00 | 0.00 | 89 | 1017.4 |
| 20260905163531 | 22 | 153 | 1.6 | 9.7 | 0.00 | 0.00 | 0.00 | 90 | 1017.4 |
| 20260905163100 | 22 | 144 | 3.2 | 9.7 | 0.00 | 0.00 | 0.00 | 90 | 1017.4 |
| 20260905162532 | 22 | 182 | 6.4 | 9.7 | 0.00 | 0.00 | 0.00 | 91 | 1017.4 |
| 20260905162032 | 21 | 150 | 6.4 | 8.0 | 0.00 | 0.00 | 0.00 | 92 | 1017.3 |
| 20260905161557 | 21 | 157 | 1.6 | 6.4 | 0.00 | 0.00 | 0.00 | 92 | 1017.2 |
| 20260905161032 | 21 | 153 | 1.6 | 4.8 | 0.00 | 0.00 | 0.00 | 92 | 1017.2 |
| 20260905160531 | 21 | 0 | 0.0 | 1.6 | 0.00 | 0.00 | 0.00 | 92 | 1017.3 |
| 20260905155531 | 21 | 0 | 0.0 | 3.2 | 0.00 | 0.00 | 0.00 | 92 | 1017.4 |
| 20260905155030 | 21 | 144 | 0.0 | 3.2 | 0.00 | 0.00 | 0.00 | 92 | 1017.4 |
| 20260905154608 | 21 | 162 | 0.0 | 4.8 | 0.00 | 0.00 | 0.00 | 92 | 1017.5 |
| 20260905154036 | 20 | 130 | 1.6 | 4.8 | 0.00 | 0.00 | 0.00 | 92 | 1017.4 |
| 20260905153532 | 20 | 129 | 1.6 | 4.8 | 0.00 | 0.00 | 0.00 | 92 | 1017.4 |
| 20260905153058 | 20 | 131 | 0.0 | 3.2 | 0.00 | 0.00 | 0.00 | 92 | 1017.5 |
| 20260905152531 | 20 | 131 | 0.0 | 3.2 | 0.00 | 0.00 | 0.00 | 92 | 1017.5 |
| 20260905152032 | 20 | 120 | 1.6 | 3.2 | 0.00 | 0.00 | 0.00 | 92 | 1017.4 |
| 20260905151554 | 20 | 146 | 1.6 | 3.2 | 0.00 | 0.00 | 0.00 | 92 | 1017.5 |
| 20260905151032 | 20 | 153 | 1.6 | 4.8 | 0.00 | 0.00 | 0.00 | 92 | 1017.4 |